Year,Month,Day,Hour,Minute,Value (Times are PST for temperature in C)
2015,08,21,00,00,11.70
2015,08,21,00,01,11.60
2015,08,21,00,02,11.60
2015,08,21,00,03,11.60
2015,08,21,00,04,11.60
2015,08,21,00,05,11.60
2015,08,21,00,06,11.60
2015,08,21,00,07,11.60
2015,08,21,00,08,11.60
2015,08,21,00,09,11.60
2015,08,21,00,10,11.50
2015,08,21,00,11,11.50
2015,08,21,00,12,11.40
2015,08,21,00,13,11.40
2015,08,21,00,14,11.40
2015,08,21,00,15,11.30
2015,08,21,00,16,11.30
2015,08,21,00,17,11.30
2015,08,21,00,18,11.30
2015,08,21,00,19,11.30
2015,08,21,00,20,11.30
2015,08,21,00,21,11.30
2015,08,21,00,22,11.30
2015,08,21,00,23,11.30
2015,08,21,00,24,11.20
2015,08,21,00,25,11.20
2015,08,21,00,26,11.20
2015,08,21,00,27,11.20
2015,08,21,00,28,11.20
2015,08,21,00,29,11.10
2015,08,21,00,30,11.10
2015,08,21,00,31,11.10
2015,08,21,00,32,11.10
2015,08,21,00,33,11.10
2015,08,21,00,34,11.10
2015,08,21,00,35,11.10
2015,08,21,00,36,11.20
2015,08,21,00,37,11.20
2015,08,21,00,38,11.20
2015,08,21,00,39,11.10
2015,08,21,00,40,11.10
2015,08,21,00,41,11.10
2015,08,21,00,42,11.10
2015,08,21,00,43,11.10
2015,08,21,00,44,11.10
2015,08,21,00,45,11.10
2015,08,21,00,46,11.10
2015,08,21,00,47,11.10
2015,08,21,00,48,11.10
2015,08,21,00,49,11.10
2015,08,21,00,50,11.20
2015,08,21,00,51,11.20
2015,08,21,00,52,11.20
2015,08,21,00,53,11.20
2015,08,21,00,54,11.20
2015,08,21,00,55,11.20
2015,08,21,00,56,11.20
2015,08,21,00,57,11.20
2015,08,21,00,58,11.20
2015,08,21,00,59,11.20
2015,08,21,01,00,11.20
2015,08,21,01,01,11.20
2015,08,21,01,02,11.20
2015,08,21,01,03,11.30
2015,08,21,01,04,11.30
2015,08,21,01,05,11.30
2015,08,21,01,06,11.30
2015,08,21,01,07,11.20
2015,08,21,01,08,11.20
2015,08,21,01,09,11.20
2015,08,21,01,10,11.20
2015,08,21,01,11,11.20
2015,08,21,01,12,11.20
2015,08,21,01,13,11.20
2015,08,21,01,14,11.20
2015,08,21,01,15,11.20
2015,08,21,01,16,11.20
2015,08,21,01,17,11.20
2015,08,21,01,18,11.20
2015,08,21,01,19,11.20
2015,08,21,01,20,11.20
2015,08,21,01,21,11.20
2015,08,21,01,22,11.20
2015,08,21,01,23,11.20
2015,08,21,01,24,11.20
2015,08,21,01,25,11.20
2015,08,21,01,26,11.20
2015,08,21,01,27,11.20
2015,08,21,01,28,11.10
2015,08,21,01,29,11.10
2015,08,21,01,30,11.10
2015,08,21,01,31,11.10
2015,08,21,01,32,11.10
2015,08,21,01,33,11.10
2015,08,21,01,34,11.10
2015,08,21,01,35,11.00
2015,08,21,01,36,11.00
2015,08,21,01,37,11.00
2015,08,21,01,38,11.00
2015,08,21,01,39,11.00
2015,08,21,01,40,11.00
2015,08,21,01,41,11.00
2015,08,21,01,42,11.00
2015,08,21,01,43,11.00
2015,08,21,01,44,11.00
2015,08,21,01,45,11.00
2015,08,21,01,46,11.00
2015,08,21,01,47,11.00
2015,08,21,01,48,11.00
2015,08,21,01,49,11.00
2015,08,21,01,50,10.90
2015,08,21,01,51,10.90
2015,08,21,01,52,10.90
2015,08,21,01,53,10.90
2015,08,21,01,54,10.90
2015,08,21,01,55,10.90
2015,08,21,01,56,10.90
2015,08,21,01,57,10.90
2015,08,21,01,58,10.90
2015,08,21,01,59,10.80
2015,08,21,02,00,10.80
2015,08,21,02,01,10.80
2015,08,21,02,02,10.80
2015,08,21,02,03,10.80
2015,08,21,02,04,10.90
2015,08,21,02,05,10.90
2015,08,21,02,06,10.90
2015,08,21,02,07,10.90
2015,08,21,02,08,10.90
2015,08,21,02,09,10.90
2015,08,21,02,10,10.90
2015,08,21,02,11,11.00
2015,08,21,02,12,11.00
2015,08,21,02,13,11.00
2015,08,21,02,14,11.00
2015,08,21,02,15,11.00
2015,08,21,02,16,10.90
2015,08,21,02,17,10.90
2015,08,21,02,18,11.00
2015,08,21,02,19,10.90
2015,08,21,02,20,10.90
2015,08,21,02,21,10.90
2015,08,21,02,22,10.80
2015,08,21,02,23,10.80
2015,08,21,02,24,10.80
2015,08,21,02,25,10.90
2015,08,21,02,26,10.90
2015,08,21,02,27,10.90
2015,08,21,02,28,10.90
2015,08,21,02,29,10.90
2015,08,21,02,30,10.90
2015,08,21,02,31,10.90
2015,08,21,02,32,10.90
2015,08,21,02,33,11.00
2015,08,21,02,34,11.00
2015,08,21,02,35,11.00
2015,08,21,02,36,11.00
2015,08,21,02,37,10.90
2015,08,21,02,38,11.00
2015,08,21,02,39,10.90
2015,08,21,02,40,11.00
2015,08,21,02,41,11.00
2015,08,21,02,42,11.00
2015,08,21,02,43,11.00
2015,08,21,02,44,11.00
2015,08,21,02,45,10.90
2015,08,21,02,46,10.90
2015,08,21,02,47,10.90
2015,08,21,02,48,10.90
2015,08,21,02,49,10.90
2015,08,21,02,50,10.90
2015,08,21,02,51,10.90
2015,08,21,02,52,10.90
2015,08,21,02,53,10.90
2015,08,21,02,54,10.80
2015,08,21,02,55,10.80
2015,08,21,02,56,10.70
2015,08,21,02,57,10.70
2015,08,21,02,58,10.70
2015,08,21,02,59,10.70
2015,08,21,03,00,10.60
2015,08,21,03,01,10.60
2015,08,21,03,02,10.60
2015,08,21,03,03,10.60
2015,08,21,03,04,10.70
2015,08,21,03,05,10.70
2015,08,21,03,06,10.70
2015,08,21,03,07,10.70
2015,08,21,03,08,10.70
2015,08,21,03,09,10.70
2015,08,21,03,10,10.70
2015,08,21,03,11,10.70
2015,08,21,03,12,10.60
2015,08,21,03,13,10.70
2015,08,21,03,14,10.70
2015,08,21,03,15,10.70
2015,08,21,03,16,10.70
2015,08,21,03,17,10.70
2015,08,21,03,18,10.70
2015,08,21,03,19,10.70
2015,08,21,03,20,10.70
2015,08,21,03,21,10.70
2015,08,21,03,22,10.70
2015,08,21,03,23,10.70
2015,08,21,03,24,10.70
2015,08,21,03,25,10.70
2015,08,21,03,26,10.70
2015,08,21,03,27,10.70
2015,08,21,03,28,10.80
2015,08,21,03,29,10.80
2015,08,21,03,30,10.80
2015,08,21,03,31,10.80
2015,08,21,03,32,10.80
2015,08,21,03,33,10.80
2015,08,21,03,34,10.80
2015,08,21,03,35,10.80
2015,08,21,03,36,10.80
2015,08,21,03,37,10.80
2015,08,21,03,38,10.90
2015,08,21,03,39,10.90
2015,08,21,03,40,11.00
2015,08,21,03,41,11.00
2015,08,21,03,42,11.00
2015,08,21,03,43,11.00
2015,08,21,03,44,11.00
2015,08,21,03,45,10.90
2015,08,21,03,46,10.90
2015,08,21,03,47,10.90
2015,08,21,03,48,10.90
2015,08,21,03,49,10.90
2015,08,21,03,50,10.90
2015,08,21,03,51,10.90
2015,08,21,03,52,10.80
2015,08,21,03,53,10.80
2015,08,21,03,54,10.80
2015,08,21,03,55,10.70
2015,08,21,03,56,10.70
2015,08,21,03,57,10.70
2015,08,21,03,58,10.70
2015,08,21,03,59,10.60
2015,08,21,04,00,10.50
2015,08,21,04,01,10.50
2015,08,21,04,02,10.60
2015,08,21,04,03,10.60
2015,08,21,04,04,10.60
2015,08,21,04,05,10.60
2015,08,21,04,06,10.60
2015,08,21,04,07,10.60
2015,08,21,04,08,10.60
2015,08,21,04,09,10.50
2015,08,21,04,10,10.50
2015,08,21,04,11,10.50
2015,08,21,04,12,10.50
2015,08,21,04,13,10.50
2015,08,21,04,14,10.50
2015,08,21,04,15,10.40
2015,08,21,04,16,10.40
2015,08,21,04,17,10.40
2015,08,21,04,18,10.30
2015,08,21,04,19,10.30
2015,08,21,04,20,10.30
2015,08,21,04,21,10.30
2015,08,21,04,22,10.30
2015,08,21,04,23,10.30
2015,08,21,04,24,10.30
2015,08,21,04,25,10.30
2015,08,21,04,26,10.30
2015,08,21,04,27,10.30
2015,08,21,04,28,10.30
2015,08,21,04,29,10.30
2015,08,21,04,30,10.30
2015,08,21,04,31,10.30
2015,08,21,04,32,10.30
2015,08,21,04,33,10.40
2015,08,21,04,34,10.40
2015,08,21,04,35,10.40
2015,08,21,04,36,10.50
2015,08,21,04,37,10.60
2015,08,21,04,38,10.60
2015,08,21,04,39,10.60
2015,08,21,04,40,10.70
2015,08,21,04,41,10.70
2015,08,21,04,42,10.60
2015,08,21,04,43,10.60
2015,08,21,04,44,10.60
2015,08,21,04,45,10.50
2015,08,21,04,46,10.50
2015,08,21,04,47,10.50
2015,08,21,04,48,10.50
2015,08,21,04,49,10.50
2015,08,21,04,50,10.40
2015,08,21,04,51,10.40
2015,08,21,04,52,10.40
2015,08,21,04,53,10.40
2015,08,21,04,54,10.40
2015,08,21,04,55,10.40
2015,08,21,04,56,10.40
2015,08,21,04,57,10.40
2015,08,21,04,58,10.30
2015,08,21,04,59,10.30
2015,08,21,05,00,10.30
2015,08,21,05,01,10.30
2015,08,21,05,02,10.30
2015,08,21,05,03,10.30
2015,08,21,05,04,10.30
2015,08,21,05,05,10.40
2015,08,21,05,06,10.40
2015,08,21,05,07,10.40
2015,08,21,05,08,10.50
2015,08,21,05,09,10.50
2015,08,21,05,10,10.60
2015,08,21,05,11,10.60
2015,08,21,05,12,10.60
2015,08,21,05,13,10.60
2015,08,21,05,14,10.70
2015,08,21,05,15,10.70
2015,08,21,05,16,10.70
2015,08,21,05,17,10.70
2015,08,21,05,18,10.70
2015,08,21,05,19,10.70
2015,08,21,05,20,10.80
2015,08,21,05,21,10.80
2015,08,21,05,22,10.80
2015,08,21,05,23,10.80
2015,08,21,05,24,10.80
2015,08,21,05,25,10.80
2015,08,21,05,26,10.80
2015,08,21,05,27,10.80
2015,08,21,05,28,10.90
2015,08,21,05,29,10.90
2015,08,21,05,30,10.90
2015,08,21,05,31,10.90
2015,08,21,05,32,10.90
2015,08,21,05,33,10.90
2015,08,21,05,34,10.90
2015,08,21,05,35,10.90
2015,08,21,05,36,10.90
2015,08,21,05,37,10.90
2015,08,21,05,38,10.90
2015,08,21,05,39,10.90
2015,08,21,05,40,10.90
2015,08,21,05,41,11.00
2015,08,21,05,42,11.00
2015,08,21,05,43,11.00
2015,08,21,05,44,10.90
2015,08,21,05,45,10.90
2015,08,21,05,46,10.90
2015,08,21,05,47,10.90
2015,08,21,05,48,10.80
2015,08,21,05,49,10.80
2015,08,21,05,50,10.80
2015,08,21,05,51,10.80
2015,08,21,05,52,10.70
2015,08,21,05,53,10.70
2015,08,21,05,54,10.70
2015,08,21,05,55,10.70
2015,08,21,05,56,10.70
2015,08,21,05,57,10.70
2015,08,21,05,58,10.70
2015,08,21,05,59,10.70
2015,08,21,06,00,10.70
2015,08,21,06,01,10.70
2015,08,21,06,02,10.80
2015,08,21,06,03,10.80
2015,08,21,06,04,10.80
2015,08,21,06,05,10.80
2015,08,21,06,06,10.70
2015,08,21,06,07,10.70
2015,08,21,06,08,10.60
2015,08,21,06,09,10.60
2015,08,21,06,10,10.50
2015,08,21,06,11,10.40
2015,08,21,06,12,10.40
2015,08,21,06,13,10.40
2015,08,21,06,14,10.40
2015,08,21,06,15,10.40
2015,08,21,06,16,10.40
2015,08,21,06,17,10.40
2015,08,21,06,18,10.50
2015,08,21,06,19,10.50
2015,08,21,06,20,10.50
2015,08,21,06,21,10.50
2015,08,21,06,22,10.50
2015,08,21,06,23,10.60
2015,08,21,06,24,10.60
2015,08,21,06,25,10.60
2015,08,21,06,26,10.60
2015,08,21,06,27,10.60
2015,08,21,06,28,10.60
2015,08,21,06,29,10.60
2015,08,21,06,30,10.60
2015,08,21,06,31,10.60
2015,08,21,06,32,10.60
2015,08,21,06,33,10.60
2015,08,21,06,34,10.60
2015,08,21,06,35,10.60
2015,08,21,06,36,10.60
2015,08,21,06,37,10.60
2015,08,21,06,38,10.60
2015,08,21,06,39,10.60
2015,08,21,06,40,10.60
2015,08,21,06,41,10.60
2015,08,21,06,42,10.70
2015,08,21,06,43,10.70
2015,08,21,06,44,10.70
2015,08,21,06,45,10.70
2015,08,21,06,46,10.70
2015,08,21,06,47,10.80
2015,08,21,06,48,10.80
2015,08,21,06,49,10.80
2015,08,21,06,50,10.80
2015,08,21,06,51,10.80
2015,08,21,06,52,10.80
2015,08,21,06,53,10.80
2015,08,21,06,54,10.80
2015,08,21,06,55,10.80
2015,08,21,06,56,10.80
2015,08,21,06,57,10.90
2015,08,21,06,58,10.90
2015,08,21,06,59,10.90
2015,08,21,07,00,10.90
2015,08,21,07,01,10.90
2015,08,21,07,02,10.90
2015,08,21,07,03,10.90
2015,08,21,07,04,10.90
2015,08,21,07,05,10.90
2015,08,21,07,06,10.80
2015,08,21,07,07,10.80
2015,08,21,07,08,10.80
2015,08,21,07,09,10.80
2015,08,21,07,10,10.80
2015,08,21,07,11,10.70
2015,08,21,07,12,10.70
2015,08,21,07,13,10.70
2015,08,21,07,14,10.70
2015,08,21,07,15,10.60
2015,08,21,07,16,10.60
2015,08,21,07,17,10.50
2015,08,21,07,18,10.50
2015,08,21,07,19,10.40
2015,08,21,07,20,10.40
2015,08,21,07,21,10.40
2015,08,21,07,22,10.40
2015,08,21,07,23,10.40
2015,08,21,07,24,10.40
2015,08,21,07,25,10.50
2015,08,21,07,26,10.50
2015,08,21,07,27,10.50
2015,08,21,07,28,10.50
2015,08,21,07,29,10.40
2015,08,21,07,30,10.40
2015,08,21,07,31,10.30
2015,08,21,07,32,10.30
2015,08,21,07,33,10.30
2015,08,21,07,34,10.30
2015,08,21,07,35,10.30
2015,08,21,07,36,10.30
2015,08,21,07,37,10.30
2015,08,21,07,38,10.30
2015,08,21,07,39,10.40
2015,08,21,07,40,10.40
2015,08,21,07,41,10.40
2015,08,21,07,42,10.50
2015,08,21,07,43,10.50
2015,08,21,07,44,10.50
2015,08,21,07,45,10.60
2015,08,21,07,46,10.60
2015,08,21,07,47,10.70
2015,08,21,07,48,10.70
2015,08,21,07,49,10.70
2015,08,21,07,50,10.70
2015,08,21,07,51,10.80
2015,08,21,07,52,10.80
2015,08,21,07,53,10.80
2015,08,21,07,54,10.90
2015,08,21,07,55,10.90
2015,08,21,07,56,11.00
2015,08,21,07,57,11.10
2015,08,21,07,58,11.10
2015,08,21,07,59,11.20
2015,08,21,08,00,11.30
2015,08,21,08,01,11.40
2015,08,21,08,02,11.40
2015,08,21,08,03,11.50
2015,08,21,08,04,11.50
2015,08,21,08,05,11.60
2015,08,21,08,06,11.70
2015,08,21,08,07,11.70
2015,08,21,08,08,11.70
2015,08,21,08,09,11.80
2015,08,21,08,10,11.80
2015,08,21,08,11,11.80
2015,08,21,08,12,11.80
2015,08,21,08,13,11.90
2015,08,21,08,14,11.90
2015,08,21,08,15,11.90
2015,08,21,08,16,12.00
2015,08,21,08,17,12.00
2015,08,21,08,18,12.10
2015,08,21,08,19,12.10
2015,08,21,08,20,12.10
2015,08,21,08,21,12.10
2015,08,21,08,22,12.10
2015,08,21,08,23,12.10
2015,08,21,08,24,12.10
2015,08,21,08,25,12.20
2015,08,21,08,26,12.20
2015,08,21,08,27,12.20
2015,08,21,08,28,12.20
2015,08,21,08,29,12.30
2015,08,21,08,30,12.30
2015,08,21,08,31,12.30
2015,08,21,08,32,12.30
2015,08,21,08,33,12.40
2015,08,21,08,34,12.40
2015,08,21,08,35,12.40
2015,08,21,08,36,12.50
2015,08,21,08,37,12.50
2015,08,21,08,38,12.60
2015,08,21,08,39,12.60
2015,08,21,08,40,12.60
2015,08,21,08,41,12.60
2015,08,21,08,42,12.60
2015,08,21,08,43,12.70
2015,08,21,08,44,12.70
2015,08,21,08,45,12.70
2015,08,21,08,46,12.70
2015,08,21,08,47,12.70
2015,08,21,08,48,12.70
2015,08,21,08,49,12.70
2015,08,21,08,50,12.70
2015,08,21,08,51,12.70
2015,08,21,08,52,12.70
2015,08,21,08,53,12.80
2015,08,21,08,54,12.80
2015,08,21,08,55,12.90
2015,08,21,08,56,12.90
2015,08,21,08,57,12.90
2015,08,21,08,58,12.90
2015,08,21,08,59,12.90
2015,08,21,09,00,12.90
2015,08,21,09,01,12.90
2015,08,21,09,02,13.00
2015,08,21,09,03,13.00
2015,08,21,09,04,13.00
2015,08,21,09,05,13.00
2015,08,21,09,06,13.10
2015,08,21,09,07,13.00
2015,08,21,09,08,13.00
2015,08,21,09,09,13.10
2015,08,21,09,10,13.10
2015,08,21,09,11,13.10
2015,08,21,09,12,13.10
2015,08,21,09,13,13.10
2015,08,21,09,14,13.10
2015,08,21,09,15,13.10
2015,08,21,09,16,13.10
2015,08,21,09,17,13.10
2015,08,21,09,18,13.10
2015,08,21,09,19,13.10
2015,08,21,09,20,13.10
2015,08,21,09,21,13.10
2015,08,21,09,22,13.20
2015,08,21,09,23,13.20
2015,08,21,09,24,13.20
2015,08,21,09,25,13.20
2015,08,21,09,26,13.20
2015,08,21,09,27,13.20
2015,08,21,09,28,13.30
2015,08,21,09,29,13.30
2015,08,21,09,30,13.30
2015,08,21,09,31,13.30
2015,08,21,09,32,13.30
2015,08,21,09,33,13.30
2015,08,21,09,34,13.30
2015,08,21,09,35,13.30
2015,08,21,09,36,13.40
2015,08,21,09,37,13.40
2015,08,21,09,38,13.40
2015,08,21,09,39,13.50
2015,08,21,09,40,13.50
2015,08,21,09,41,13.60
2015,08,21,09,42,13.60
2015,08,21,09,43,13.60
2015,08,21,09,44,13.70
2015,08,21,09,45,13.70
2015,08,21,09,46,13.80
2015,08,21,09,47,13.80
2015,08,21,09,48,13.90
2015,08,21,09,49,13.90
2015,08,21,09,50,14.00
2015,08,21,09,51,14.10
2015,08,21,09,52,14.10
2015,08,21,09,53,14.20
2015,08,21,09,54,14.20
2015,08,21,09,55,14.20
2015,08,21,09,56,14.30
2015,08,21,09,57,14.30
2015,08,21,09,58,14.40
2015,08,21,09,59,14.50
2015,08,21,10,00,14.60
2015,08,21,10,01,14.60
2015,08,21,10,02,14.70
2015,08,21,10,03,14.70
2015,08,21,10,04,14.80
2015,08,21,10,05,14.90
2015,08,21,10,06,15.00
2015,08,21,10,07,15.10
2015,08,21,10,08,15.20
2015,08,21,10,09,15.20
2015,08,21,10,10,15.20
2015,08,21,10,11,15.30
2015,08,21,10,12,15.30
2015,08,21,10,13,15.30
2015,08,21,10,14,15.30
2015,08,21,10,15,15.30
2015,08,21,10,16,15.30
2015,08,21,10,17,15.40
2015,08,21,10,18,15.40
2015,08,21,10,19,15.50
2015,08,21,10,20,15.60
2015,08,21,10,21,15.60
2015,08,21,10,22,15.70
2015,08,21,10,23,15.80
2015,08,21,10,24,15.80
2015,08,21,10,25,15.90
2015,08,21,10,26,15.90
2015,08,21,10,27,16.00
2015,08,21,10,28,16.00
2015,08,21,10,29,16.10
2015,08,21,10,30,16.10
2015,08,21,10,31,16.10
2015,08,21,10,32,16.10
2015,08,21,10,33,16.10
2015,08,21,10,34,16.10
2015,08,21,10,35,16.00
2015,08,21,10,36,16.10
2015,08,21,10,37,16.10
2015,08,21,10,38,16.10
2015,08,21,10,39,16.10
2015,08,21,10,40,16.10
2015,08,21,10,41,16.00
2015,08,21,10,42,16.00
2015,08,21,10,43,16.10
2015,08,21,10,44,16.10
2015,08,21,10,45,16.20
2015,08,21,10,46,16.20
2015,08,21,10,47,16.20
2015,08,21,10,48,16.20
2015,08,21,10,49,16.20
2015,08,21,10,50,16.20
2015,08,21,10,51,16.30
2015,08,21,10,52,16.30
2015,08,21,10,53,16.40
2015,08,21,10,54,16.40
2015,08,21,10,55,16.40
2015,08,21,10,56,16.40
2015,08,21,10,57,16.40
2015,08,21,10,58,16.40
2015,08,21,10,59,16.40
2015,08,21,11,00,16.40
2015,08,21,11,01,16.30
2015,08,21,11,02,16.40
2015,08,21,11,03,16.30
2015,08,21,11,04,16.20
2015,08,21,11,05,16.20
2015,08,21,11,06,16.20
2015,08,21,11,07,16.20
2015,08,21,11,08,16.20
2015,08,21,11,09,16.20
2015,08,21,11,10,16.20
2015,08,21,11,11,16.20
2015,08,21,11,12,16.20
2015,08,21,11,13,16.20
2015,08,21,11,14,16.20
2015,08,21,11,15,16.20
2015,08,21,11,16,16.30
2015,08,21,11,17,16.20
2015,08,21,11,18,16.20
2015,08,21,11,19,16.20
2015,08,21,11,20,16.20
2015,08,21,11,21,16.20
2015,08,21,11,22,16.30
2015,08,21,11,23,16.30
2015,08,21,11,24,16.20
2015,08,21,11,25,16.20
2015,08,21,11,26,16.20
2015,08,21,11,27,16.20
2015,08,21,11,28,16.20
2015,08,21,11,29,16.30
2015,08,21,11,30,16.30
2015,08,21,11,31,16.40
2015,08,21,11,32,16.40
2015,08,21,11,33,16.40
2015,08,21,11,34,16.50
2015,08,21,11,35,16.50
2015,08,21,11,36,16.50
2015,08,21,11,37,16.60
2015,08,21,11,38,16.60
2015,08,21,11,39,16.50
2015,08,21,11,40,16.50
2015,08,21,11,41,16.40
2015,08,21,11,42,16.40
2015,08,21,11,43,16.50
2015,08,21,11,44,16.60
2015,08,21,11,45,16.70
2015,08,21,11,46,16.80
2015,08,21,11,47,16.80
2015,08,21,11,48,16.80
2015,08,21,11,49,16.80
2015,08,21,11,50,16.80
2015,08,21,11,51,16.90
2015,08,21,11,52,16.90
2015,08,21,11,53,16.90
2015,08,21,11,54,16.90
2015,08,21,11,55,16.90
2015,08,21,11,56,16.80
2015,08,21,11,57,16.80
2015,08,21,11,58,16.80
2015,08,21,11,59,16.80
2015,08,21,12,00,16.80
2015,08,21,12,01,16.90
2015,08,21,12,02,17.00
2015,08,21,12,03,17.00
2015,08,21,12,04,17.00
2015,08,21,12,05,17.10
2015,08,21,12,06,17.10
2015,08,21,12,07,17.20
2015,08,21,12,08,17.20
2015,08,21,12,09,17.20
2015,08,21,12,10,17.20
2015,08,21,12,11,17.20
2015,08,21,12,12,17.30
2015,08,21,12,13,17.30
2015,08,21,12,14,17.40
2015,08,21,12,15,17.40
2015,08,21,12,16,17.40
2015,08,21,12,17,17.40
2015,08,21,12,18,17.40
2015,08,21,12,19,17.40
2015,08,21,12,20,17.40
2015,08,21,12,21,17.40
2015,08,21,12,22,17.40
2015,08,21,12,23,17.50
2015,08,21,12,24,17.50
2015,08,21,12,25,17.40
2015,08,21,12,26,17.40
2015,08,21,12,27,17.30
2015,08,21,12,28,17.30
2015,08,21,12,29,17.40
2015,08,21,12,30,17.40
2015,08,21,12,31,17.50
2015,08,21,12,32,17.60
2015,08,21,12,33,17.60
2015,08,21,12,34,17.60
2015,08,21,12,35,17.60
2015,08,21,12,36,17.50
2015,08,21,12,37,17.40
2015,08,21,12,38,17.30
2015,08,21,12,39,17.20
2015,08,21,12,40,17.30
2015,08,21,12,41,17.30
2015,08,21,12,42,17.30
2015,08,21,12,43,17.30
2015,08,21,12,44,17.30
2015,08,21,12,45,17.20
2015,08,21,12,46,17.20
2015,08,21,12,47,17.10
2015,08,21,12,48,17.20
2015,08,21,12,49,17.20
2015,08,21,12,50,17.20
2015,08,21,12,51,17.20
2015,08,21,12,52,17.20
2015,08,21,12,53,17.10
2015,08,21,12,54,17.10
2015,08,21,12,55,17.00
2015,08,21,12,56,16.90
2015,08,21,12,57,16.90
2015,08,21,12,58,16.90
2015,08,21,12,59,16.90
2015,08,21,13,00,17.00
2015,08,21,13,01,17.00
2015,08,21,13,02,17.00
2015,08,21,13,03,17.10
2015,08,21,13,04,17.20
2015,08,21,13,05,17.20
2015,08,21,13,06,17.10
2015,08,21,13,07,17.10
2015,08,21,13,08,17.20
2015,08,21,13,09,17.20
2015,08,21,13,10,17.10
2015,08,21,13,11,17.20
2015,08,21,13,12,17.20
2015,08,21,13,13,17.30
2015,08,21,13,14,17.30
2015,08,21,13,15,17.40
2015,08,21,13,16,17.40
2015,08,21,13,17,17.30
2015,08,21,13,18,17.30
2015,08,21,13,19,17.30
2015,08,21,13,20,17.30
2015,08,21,13,21,17.30
2015,08,21,13,22,17.30
2015,08,21,13,23,17.30
2015,08,21,13,24,17.40
2015,08,21,13,25,17.40
2015,08,21,13,26,17.40
2015,08,21,13,27,17.50
2015,08,21,13,28,17.50
2015,08,21,13,29,17.60
2015,08,21,13,30,17.70
2015,08,21,13,31,17.80
2015,08,21,13,32,18.00
2015,08,21,13,33,18.10
2015,08,21,13,34,18.10
2015,08,21,13,35,18.10
2015,08,21,13,36,18.00
2015,08,21,13,37,17.90
2015,08,21,13,38,17.80
2015,08,21,13,39,17.80
2015,08,21,13,40,17.80
2015,08,21,13,41,17.80
2015,08,21,13,42,17.90
2015,08,21,13,43,18.00
2015,08,21,13,44,18.10
2015,08,21,13,45,18.20
2015,08,21,13,46,18.30
2015,08,21,13,47,18.40
2015,08,21,13,48,18.40
2015,08,21,13,49,18.30
2015,08,21,13,50,18.30
2015,08,21,13,51,18.30
2015,08,21,13,52,18.30
2015,08,21,13,53,18.30
2015,08,21,13,54,18.30
2015,08,21,13,55,18.30
2015,08,21,13,56,18.20
2015,08,21,13,57,18.20
2015,08,21,13,58,18.20
2015,08,21,13,59,18.20
2015,08,21,14,00,18.20
2015,08,21,14,01,18.20
2015,08,21,14,02,18.30
2015,08,21,14,03,18.40
2015,08,21,14,04,18.50
2015,08,21,14,05,18.50
2015,08,21,14,06,18.60
2015,08,21,14,07,18.60
2015,08,21,14,08,18.60
2015,08,21,14,09,18.70
2015,08,21,14,10,18.70
2015,08,21,14,11,18.70
2015,08,21,14,12,18.80
2015,08,21,14,13,18.80
2015,08,21,14,14,18.90
2015,08,21,14,15,19.00
2015,08,21,14,16,19.10
2015,08,21,14,17,19.20
2015,08,21,14,18,19.30
2015,08,21,14,19,19.40
2015,08,21,14,20,19.40
2015,08,21,14,21,19.50
2015,08,21,14,22,19.40
2015,08,21,14,23,19.30
2015,08,21,14,24,19.20
2015,08,21,14,25,19.10
2015,08,21,14,26,19.00
2015,08,21,14,27,18.90
2015,08,21,14,28,18.80
2015,08,21,14,29,18.70
2015,08,21,14,30,18.70
2015,08,21,14,31,18.70
2015,08,21,14,32,18.80
2015,08,21,14,33,18.80
2015,08,21,14,34,18.90
2015,08,21,14,35,18.90
2015,08,21,14,36,18.90
2015,08,21,14,37,18.80
2015,08,21,14,38,18.80
2015,08,21,14,39,18.80
2015,08,21,14,40,18.80
2015,08,21,14,41,18.80
2015,08,21,14,42,18.80
2015,08,21,14,43,18.90
2015,08,21,14,44,18.90
2015,08,21,14,45,18.90
2015,08,21,14,46,18.80
2015,08,21,14,47,18.80
2015,08,21,14,48,18.80
2015,08,21,14,49,18.90
2015,08,21,14,50,18.90
2015,08,21,14,51,18.90
2015,08,21,14,52,18.90
2015,08,21,14,53,18.90
2015,08,21,14,54,18.90
2015,08,21,14,55,18.90
2015,08,21,14,56,18.90
2015,08,21,14,57,18.90
2015,08,21,14,58,18.90
2015,08,21,14,59,18.80
2015,08,21,15,00,18.70
2015,08,21,15,01,18.60
2015,08,21,15,02,18.60
2015,08,21,15,03,18.60
2015,08,21,15,04,18.50
2015,08,21,15,05,18.40
2015,08,21,15,06,18.30
2015,08,21,15,07,18.30
2015,08,21,15,08,18.30
2015,08,21,15,09,18.40
2015,08,21,15,10,18.50
2015,08,21,15,11,18.50
2015,08,21,15,12,18.60
2015,08,21,15,13,18.70
2015,08,21,15,14,18.70
2015,08,21,15,15,18.70
2015,08,21,15,16,18.70
2015,08,21,15,17,18.70
2015,08,21,15,18,18.80
2015,08,21,15,19,18.90
2015,08,21,15,20,18.90
2015,08,21,15,21,19.00
2015,08,21,15,22,19.00
2015,08,21,15,23,18.90
2015,08,21,15,24,18.90
2015,08,21,15,25,19.00
2015,08,21,15,26,19.00
2015,08,21,15,27,19.10
2015,08,21,15,28,19.10
2015,08,21,15,29,19.20
2015,08,21,15,30,19.30
2015,08,21,15,31,19.30
2015,08,21,15,32,19.50
2015,08,21,15,33,19.50
2015,08,21,15,34,19.60
2015,08,21,15,35,19.60
2015,08,21,15,36,19.60
2015,08,21,15,37,19.60
2015,08,21,15,38,19.60
2015,08,21,15,39,19.60
2015,08,21,15,40,19.60
2015,08,21,15,41,19.60
2015,08,21,15,42,19.60
2015,08,21,15,43,19.60
2015,08,21,15,44,19.60
2015,08,21,15,45,19.60
2015,08,21,15,46,19.60
2015,08,21,15,47,19.60
2015,08,21,15,48,19.70
2015,08,21,15,49,19.70
2015,08,21,15,50,19.60
2015,08,21,15,51,19.60
2015,08,21,15,52,19.70
2015,08,21,15,53,19.60
2015,08,21,15,54,19.60
2015,08,21,15,55,19.60
2015,08,21,15,56,19.60
2015,08,21,15,57,19.70
2015,08,21,15,58,19.70
2015,08,21,15,59,19.80
2015,08,21,16,00,19.80
2015,08,21,16,01,19.80
2015,08,21,16,02,19.80
2015,08,21,16,03,19.70
2015,08,21,16,04,19.70
2015,08,21,16,05,19.70
2015,08,21,16,06,19.70
2015,08,21,16,07,19.70
2015,08,21,16,08,19.80
2015,08,21,16,09,19.90
2015,08,21,16,10,20.00
2015,08,21,16,11,19.90
2015,08,21,16,12,19.90
2015,08,21,16,13,19.90
2015,08,21,16,14,19.90
2015,08,21,16,15,19.90
2015,08,21,16,16,20.00
2015,08,21,16,17,20.00
2015,08,21,16,18,20.00
2015,08,21,16,19,20.00
2015,08,21,16,20,20.00
2015,08,21,16,21,19.90
2015,08,21,16,22,20.00
2015,08,21,16,23,20.00
2015,08,21,16,24,20.10
2015,08,21,16,25,20.10
2015,08,21,16,26,20.10
2015,08,21,16,27,20.10
2015,08,21,16,28,20.10
2015,08,21,16,29,20.10
2015,08,21,16,30,20.00
2015,08,21,16,31,19.90
2015,08,21,16,32,19.90
2015,08,21,16,33,19.90
2015,08,21,16,34,19.90
2015,08,21,16,35,19.80
2015,08,21,16,36,19.80
2015,08,21,16,37,19.70
2015,08,21,16,38,19.70
2015,08,21,16,39,19.70
2015,08,21,16,40,19.70
2015,08,21,16,41,19.70
2015,08,21,16,42,19.60
2015,08,21,16,43,19.50
2015,08,21,16,44,19.40
2015,08,21,16,45,19.40
2015,08,21,16,46,19.40
2015,08,21,16,47,19.40
2015,08,21,16,48,19.40
2015,08,21,16,49,19.40
2015,08,21,16,50,19.50
2015,08,21,16,51,19.60
2015,08,21,16,52,19.60
2015,08,21,16,53,19.60
2015,08,21,16,54,19.50
2015,08,21,16,55,19.50
2015,08,21,16,56,19.40
2015,08,21,16,57,19.40
2015,08,21,16,58,19.30
2015,08,21,16,59,19.30
2015,08,21,17,00,19.40
2015,08,21,17,01,19.40
2015,08,21,17,02,19.40
2015,08,21,17,03,19.40
2015,08,21,17,04,19.40
2015,08,21,17,05,19.40
2015,08,21,17,06,19.40
2015,08,21,17,07,19.40
2015,08,21,17,08,19.40
2015,08,21,17,09,19.30
2015,08,21,17,10,19.30
2015,08,21,17,11,19.20
2015,08,21,17,12,19.20
2015,08,21,17,13,19.10
2015,08,21,17,14,19.10
2015,08,21,17,15,19.10
2015,08,21,17,16,19.10
2015,08,21,17,17,19.10
2015,08,21,17,18,19.10
2015,08,21,17,19,19.20